Location: Newark
(51.0089°N, 21.5817°E)
Time: 07:17:32
(UTC+00:00)

XW-2F - Pass Details

Date: 25 February 2020
Orbit: 503 x 521 km, 97.5° (Epoch: 04 April)

Event Time Altitude Azimuth Distance (km) Brightness Sun altitude
Rises 04:08:38 0° 21° (NNE) 2,635 ? -13.2°
Reaches altitude 10° 04:10:55 10° 33° (NNE) 1,746 ? -12.9°
Maximum altitude 04:14:16 30° 96° (E) 946 ? -12.3°
Drops below altitude 10° 04:17:37 10° 159° (SSE) 1,742 ? -11.8°
Sets 04:19:53 0° 170° (S) 2,627 ? -11.4°
